Hourly Weather Rudniki

Today, 22 April, Thursday

Time Temperature Precipitation Wind Pressure Humidity
00:00 +8°C° 0.1 mm 3 mps 744 mmHg 86%
01:00 +8°C° 0 mm 3 mps 744 mmHg 88%
02:00 +7°C° 0 mm 3 mps 744 mmHg 89%
03:00 +7°C° 0 mm 3 mps 744 mmHg 90%
04:00 +5°C° 0 mm 3 mps 744 mmHg 90%
05:00 +7°C° 0.1 mm 3 mps 744 mmHg 87%
06:00 +8°C° 0.1 mm 3 mps 744 mmHg 83%
07:00 +9°C° 0.1 mm 3 mps 744 mmHg 80%
08:00 +8°C° 0.1 mm 4 mps 745 mmHg 79%
09:00 +8°C° 0.1 mm 5 mps 745 mmHg 79%
10:00 +8°C° 0.1 mm 6 mps 745 mmHg 79%
11:00 +8°C° 0.2 mm 6 mps 746 mmHg 77%
12:00 +7°C° 0.2 mm 6 mps 746 mmHg 76%
13:00 +6°C° 0.2 mm 5 mps 747 mmHg 74%
14:00 +7°C° 0 mm 5 mps 746 mmHg 66%
15:00 +8°C° 0 mm 5 mps 746 mmHg 57%
16:00 +9°C° 0 mm 5 mps 746 mmHg 48%
17:00 +7°C° 0 mm 4 mps 747 mmHg 53%
18:00 +7°C° 0 mm 3 mps 747 mmHg 58%
19:00 +4°C° 0 mm 3 mps 747 mmHg 63%
20:00 +3°C° 0 mm 3 mps 748 mmHg 66%
21:00 +3°C° 0 mm 3 mps 748 mmHg 70%
22:00 +2°C° 0 mm 3 mps 748 mmHg 73%
23:00 +1°C° 0 mm 3 mps 748 mmHg 76%

Tomorrow, 23 April, Friday

Time Temperature Precipitation Wind Pressure Humidity
00:00 +1°C° 0 mm 3 mps 749 mmHg 79%
01:00 +1°C° 0 mm 3 mps 749 mmHg 83%
02:00 +1°C° 0 mm 3 mps 749 mmHg 84%
03:00 +1°C° 0 mm 3 mps 749 mmHg 86%
04:00 0°C° 0 mm 3 mps 749 mmHg 88%
05:00 +2°C° 0 mm 3 mps 749 mmHg 83%
06:00 +3°C° 0 mm 4 mps 749 mmHg 78%
07:00 +4°C° 0 mm 4 mps 750 mmHg 73%
08:00 +5°C° 0.2 mm 5 mps 750 mmHg 65%
09:00 +6°C° 0.2 mm 5 mps 750 mmHg 57%
10:00 +7°C° 0.2 mm 6 mps 750 mmHg 49%
11:00 +8°C° 0 mm 6 mps 750 mmHg 47%
12:00 +8°C° 0 mm 6 mps 750 mmHg 46%
13:00 +8°C° 0 mm 6 mps 750 mmHg 44%
14:00 +8°C° 0.2 mm 6 mps 750 mmHg 50%
15:00 +6°C° 0.2 mm 7 mps 750 mmHg 57%
16:00 +6°C° 0.2 mm 7 mps 750 mmHg 63%
17:00 +5°C° 0 mm 7 mps 750 mmHg 67%
18:00 +3°C° 0 mm 6 mps 750 mmHg 71%
19:00 +2°C° 0 mm 6 mps 750 mmHg 75%
20:00 +2°C° 0 mm 5 mps 751 mmHg 79%
21:00 +1°C° 0 mm 5 mps 751 mmHg 82%
22:00 +1°C° 0 mm 5 mps 751 mmHg 86%
23:00 0°C° 0 mm 4 mps 751 mmHg 88%

Day after tomorrow, 24 April, Saturday

Time Temperature Precipitation Wind Pressure Humidity
00:00 0°C° 0 mm 3 mps 751 mmHg 89%
01:00 0°C° 0 mm 3 mps 752 mmHg 91%
02:00 -1°C° 0 mm 3 mps 752 mmHg 89%
03:00 -1°C° 0 mm 3 mps 752 mmHg 86%
04:00 -1°C° 0 mm 3 mps 752 mmHg 83%
05:00 0°C° 0 mm 3 mps 752 mmHg 74%
06:00 +1°C° 0 mm 4 mps 752 mmHg 65%
07:00 +3°C° 0 mm 4 mps 752 mmHg 57%
08:00 +5°C° 0 mm 4 mps 752 mmHg 51%
09:00 +6°C° 0 mm 4 mps 752 mmHg 46%
10:00 +7°C° 0 mm 4 mps 752 mmHg 41%
11:00 +8°C° 0 mm 4 mps 752 mmHg 40%
12:00 +9°C° 0 mm 5 mps 751 mmHg 39%
13:00 +9°C° 0 mm 5 mps 751 mmHg 38%
14:00 +9°C° 0 mm 5 mps 751 mmHg 42%
15:00 +9°C° 0 mm 5 mps 750 mmHg 46%
16:00 +9°C° 0 mm 5 mps 750 mmHg 50%
17:00 +8°C° 0.1 mm 4 mps 750 mmHg 58%
18:00 +7°C° 0.1 mm 3 mps 750 mmHg 66%
19:00 +6°C° 0.1 mm 2 mps 750 mmHg 74%
20:00 +5°C° 0 mm 2 mps 750 mmHg 79%
21:00 +4°C° 0 mm 2 mps 750 mmHg 84%
22:00 +4°C° 0 mm 2 mps 750 mmHg 89%
23:00 +3°C° 0 mm 2 mps 750 mmHg 90%

25 April, Sunday

Time Temperature Precipitation Wind Pressure Humidity
00:00 +3°C° 0 mm 2 mps 750 mmHg 91%
01:00 +3°C° 0 mm 2 mps 750 mmHg 91%
02:00 +2°C° 0 mm 2 mps 750 mmHg 93%
03:00 +2°C° 0 mm 2 mps 750 mmHg 94%
04:00 0°C° 0 mm 3 mps 750 mmHg 95%
05:00 +2°C° 0 mm 2 mps 750 mmHg 92%
06:00 +2°C° 0 mm 2 mps 751 mmHg 88%
07:00 +3°C° 0 mm 2 mps 751 mmHg 85%
08:00 +4°C° 0 mm 2 mps 751 mmHg 75%
09:00 +5°C° 0 mm 2 mps 751 mmHg 64%
10:00 +7°C° 0 mm 3 mps 751 mmHg 53%
11:00 +6°C° 0.1 mm 4 mps 751 mmHg 51%
12:00 +7°C° 0.1 mm 4 mps 750 mmHg 49%
13:00 +7°C° 0.1 mm 5 mps 750 mmHg 47%
14:00 +7°C° 0 mm 5 mps 750 mmHg 46%
15:00 +8°C° 0 mm 6 mps 750 mmHg 45%
16:00 +8°C° 0 mm 6 mps 750 mmHg 44%
17:00 +6°C° 0 mm 5 mps 750 mmHg 49%
18:00 +5°C° 0 mm 4 mps 750 mmHg 55%
19:00 +3°C° 0 mm 3 mps 750 mmHg 60%
20:00 +3°C° 0 mm 3 mps 750 mmHg 63%
21:00 +2°C° 0 mm 3 mps 750 mmHg 67%
22:00 +3°C° 0 mm 2 mps 750 mmHg 70%
23:00 +1°C° 0 mm 3 mps 750 mmHg 72%

26 April, Monday

Time Temperature Precipitation Wind Pressure Humidity
00:00 +1°C° 0 mm 3 mps 750 mmHg 74%
01:00 0°C° 0 mm 3 mps 750 mmHg 76%
02:00 0°C° 0 mm 3 mps 750 mmHg 77%
03:00 0°C° 0 mm 3 mps 749 mmHg 78%
04:00 0°C° 0 mm 3 mps 749 mmHg 78%
05:00 +1°C° 0 mm 3 mps 749 mmHg 74%
06:00 +3°C° 0 mm 4 mps 749 mmHg 69%
07:00 +4°C° 0 mm 4 mps 749 mmHg 64%
08:00 +5°C° 0.1 mm 4 mps 749 mmHg 61%
09:00 +6°C° 0.1 mm 5 mps 749 mmHg 57%
10:00 +7°C° 0.1 mm 5 mps 749 mmHg 53%
11:00 +8°C° 0.1 mm 5 mps 748 mmHg 50%
12:00 +8°C° 0.1 mm 5 mps 748 mmHg 48%
13:00 +9°C° 0.1 mm 6 mps 748 mmHg 45%
14:00 +9°C° 0 mm 5 mps 747 mmHg 44%
15:00 +9°C° 0 mm 5 mps 747 mmHg 44%
16:00 +10°C° 0 mm 5 mps 747 mmHg 43%
17:00 +8°C° 0 mm 4 mps 747 mmHg 49%
18:00 +7°C° 0 mm 3 mps 747 mmHg 55%
19:00 +5°C° 0 mm 2 mps 747 mmHg 61%
20:00 +5°C° 0 mm 2 mps 747 mmHg 64%
21:00 +5°C° 0 mm 1 mps 747 mmHg 67%
22:00 +4°C° 0 mm 1 mps 747 mmHg 69%
23:00 +4°C° 0 mm 1 mps 747 mmHg 71%

27 April, Tuesday

Time Temperature Precipitation Wind Pressure Humidity
00:00 +3°C° 0 mm 1 mps 747 mmHg 73%
01:00 +3°C° 0 mm 1 mps 747 mmHg 76%
02:00 +3°C° 0 mm 1 mps 747 mmHg 77%
03:00 +2°C° 0 mm 1 mps 746 mmHg 79%
04:00 +1°C° 0 mm 2 mps 746 mmHg 81%
05:00 +3°C° 0 mm 2 mps 746 mmHg 75%
06:00 +3°C° 0 mm 3 mps 746 mmHg 70%
07:00 +5°C° 0 mm 3 mps 746 mmHg 65%
08:00 +7°C° 0 mm 3 mps 746 mmHg 60%
09:00 +8°C° 0 mm 4 mps 745 mmHg 55%
10:00 +11°C° 0 mm 4 mps 745 mmHg 50%
11:00 +12°C° 0 mm 4 mps 744 mmHg 48%
12:00 +12°C° 0 mm 4 mps 744 mmHg 46%
13:00 +13°C° 0 mm 4 mps 743 mmHg 45%
14:00 +13°C° 0 mm 4 mps 743 mmHg 47%
15:00 +13°C° 0 mm 4 mps 742 mmHg 49%
16:00 +13°C° 0 mm 4 mps 742 mmHg 51%
17:00 +12°C° 0 mm 4 mps 741 mmHg 56%
18:00 +11°C° 0 mm 4 mps 741 mmHg 61%
19:00 +8°C° 0 mm 4 mps 741 mmHg 65%
20:00 +8°C° 0 mm 4 mps 741 mmHg 68%
21:00 +7°C° 0 mm 4 mps 740 mmHg 70%
22:00 +7°C° 0 mm 4 mps 740 mmHg 73%
23:00 +7°C° 0 mm 3 mps 740 mmHg 75%
Show more